Weather History for Van Nuys, CA

Change the Weather History Date:

Friday, May 16, 2014

  Actual Average Record
Temperature  
Mean Temperature 84 °F -  
Max Temperature 99 °F 75 °F 102 °F (2008)
Min Temperature 70 °F 54 °F 46 °F (2011)
Cooling Degree Days 20    
Growing Degree Days 34 (Base 50)    
Moisture  
Dew Point 33 °F    
Average Humidity 19    
Maximum Humidity 34    
Minimum Humidity 9    
Precipitation  
Precipitation 0.00 in - - ()
Sea Level Pressure  
Sea Level Pressure 29.91 in    
Wind  
Wind Speed 2 mph (South)    
Max Wind Speed 12 mph    
Max Gust Speed -    
Visibility 10 miles    
Events      
Averages and records for this station are not official NWS values.
T = Trace of Precipitation, MM = Missing Value Source: NWS Daily Summary

Daily Weather History Graph

Daily Weather History Graph

Search for Another Location

Airport:

Trip Planner

Search our weather history database for the weather conditions in past years. The results will help you decide how hot, cold, wet, or windy it might be!

Date:

Astronomy

May. 16, 2014 Rise Set
Actual Time 5:51 AM PDT 7:49 PM PDT
Civil Twilight 5:23 AM PDT 8:17 PM PDT
Nautical Twilight 4:49 AM PDT 8:51 PM PDT
Astronomical Twilight 4:13 AM PDT 9:27 PM PDT
Moon 10:01 PM PDT (5/16) 7:37 AM PDT (5/16)
Length of Visible Light 14h 54m
Length of Day
13h 58m
Waning Gibbous, 95% of the Moon is Illuminated
May 16
Waning Gibbous
May 21
Last Quarter
May 28
New
Jun 5
First Quarter
Jun 12
Full

Hourly Weather History & Observations

Time (PDT) Temp. Dew Point Humidity Pressure Visibility Wind Dir Wind Speed Gust Speed Precip Events Conditions
12:51 AM 73.0 °F 33.1 °F 23% 29.95 in 10.0 mi Calm Calm - N/A   Clear
1:51 AM 73.9 °F 30.0 °F 20% 29.93 in 10.0 mi Calm Calm - N/A   Clear
2:51 AM 73.0 °F 32.0 °F 22% 29.94 in 10.0 mi Calm Calm - N/A   Clear
3:51 AM 72.0 °F 34.0 °F 25% 29.94 in 10.0 mi Calm Calm - N/A   Clear
4:51 AM 77.0 °F 26.1 °F 15% 29.93 in 10.0 mi Variable 3.5 mph - N/A   Clear
5:51 AM 70.0 °F 36.0 °F 29% 29.94 in 10.0 mi Calm Calm - N/A   Clear
6:51 AM 70.0 °F 37.0 °F 30% 29.96 in 10.0 mi West 3.5 mph - N/A   Clear
7:51 AM 75.9 °F 35.1 °F 23% 29.96 in 10.0 mi Calm Calm - N/A   Clear
8:51 AM 81.0 °F 37.0 °F 21% 29.96 in 10.0 mi Calm Calm - N/A   Clear
9:51 AM 91.0 °F 24.1 °F 9% 29.95 in 10.0 mi ESE 4.6 mph - N/A   Clear
10:51 AM 91.9 °F 28.0 °F 10% 29.94 in 10.0 mi SSW 4.6 mph - N/A   Clear
11:51 AM 95.0 °F 27.0 °F 9% 29.93 in 10.0 mi Variable 5.8 mph - N/A   Clear
2:51 PM 97.0 °F 32.0 °F 10% 29.88 in 10.0 mi South 11.5 mph - N/A   Clear
3:51 PM 99.0 °F 30.9 °F 9% 29.86 in 10.0 mi Variable 4.6 mph - N/A   Clear
4:51 PM 97.0 °F 28.9 °F 9% 29.84 in 10.0 mi West 9.2 mph - N/A   Clear
5:51 PM 93.9 °F 30.0 °F 10% 29.84 in 10.0 mi WNW 8.1 mph - N/A   Clear
6:51 PM 91.0 °F 32.0 °F 12% 29.85 in 10.0 mi SW 5.8 mph - N/A   Clear
7:51 PM 87.1 °F 33.1 °F 15% 29.86 in 10.0 mi Calm Calm - N/A   Clear
8:51 PM 82.0 °F 39.9 °F 22% 29.87 in 10.0 mi East 5.8 mph - N/A   Clear
9:51 PM 80.1 °F 39.9 °F 24% 29.88 in 10.0 mi East 4.6 mph - N/A   Clear
10:51 PM 77.0 °F 41.0 °F 28% 29.88 in 10.0 mi East 4.6 mph - N/A   Clear
11:51 PM 73.9 °F 44.1 °F 34% 29.88 in 10.0 mi ESE 3.5 mph - N/A   Clear